[[{"header":{"parameterUnit":"m.s-1","parameterCategory":1,"la1":30.2991,"la2":30.254,"lo1":-89.0895,"lo2":-89.0444,"dy":0.0017,"dx":0.0017,"nx":28,"ny":28,"refTime":"2025-05-25T21:00:00:Z","depth":0,"parameterNumber":2,"parameterNumberName":"U-component_of_WINDS"},"data":[0,0,0,0,0,0,0,0,0,0,0,0,0,0,0,0,0,0,0,0,0,0,0,0,0,0,0,0,0,0,0,0,0,0,0,0,0,0,0,0,0,0,0,0,0,0,0,0,0,0,0,0,0,0,0,0,0,0,0.8328,0.8329,0,0.8379,0.8379,0.838,0.8419,0.842,0.842,0.842,0.8469,0.847,0.8471,0,0,0,0,0,0,0,0,0,0,0,0,0,0.8262,0.8263,0.8328,0.8329,0.8329,0.8379,0.8379,0.838,0.8419,0.842,0.842,0.8421,0.8469,0.847,0.8471,0,0,0,0,0,0,0,0,0,0,0,0,0,0.8299,0.8263,0.8328,0.8355,0.8358,0.8378,0.8379,0.838,0.8419,0.842,0.842,0.8421,0.8469,0.847,0.8472,0.8469,0,0,0.8476,0.8477,0,0,0,0,0,0,0,0,0.8297,0.8302,0.835,0.8353,0.8356,0.8393,0.8374,0.841,0.8419,0.8396,0.842,0.8421,0.8443,0.8447,0.8455,0.8471,0.8473,0.8476,0.8477,0.8477,0.8478,0,0,0,0,0,0,0,0.8295,0.83,0.8348,0.8351,0.8355,0.8363,0.8369,0.8381,0.8416,0.8398,0.8401,0.8406,0.8445,0.8454,0.8457,0.8474,0.8476,0.8477,0.8478,0.8479,0.8488,0.8488,0,0,0,0,0,0,0.8288,0.8297,0.8346,0.835,0.8328,0.8364,0.8371,0.8381,0.8416,0.8422,0.8406,0.8408,0.8451,0.8455,0.8458,0.8456,0.8477,0.8479,0.848,0.8489,0.8488,0.8487,0,0,0,0,0,0,0.8287,0.8292,0.8344,0.8324,0.8332,0.8365,0.8376,0.8382,0.839,0.8422,0.8428,0.8408,0.8452,0.8456,0.8466,0.8459,0.8479,0.8481,0.849,0.8489,0.8488,0.8453,0,0,0,0,0,0,0.8285,0.8291,0.8292,0.8324,0.8333,0.8352,0.8375,0.8382,0.8393,0.8396,0.8426,0.8431,0.8452,0.8463,0.8467,0.8461,0.8482,0.849,0.8489,0.8488,0.8455,0.8451,0.8447,0,0,0,0,0,0.8282,0.8279,0.8291,0.8297,0.8334,0.8351,0.8356,0.8381,0.8392,0.8392,0.8412,0.843,0.8459,0.8464,0.8469,0.8463,0.8491,0.8489,0.8488,0.8456,0.8451,0.8447,0,0,0,0,0,0,0.8244,0.8284,0.8298,0.8306,0.8325,0.8358,0.8358,0.8376,0.8391,0.8394,0.8424,0.843,0.8436,0.845,0.8455,0.8461,0.8477,0.8477,0.8451,0.8447,0.8443,0.8439,0.8483,0,0,0,0,0,0.8237,0.8249,0.8283,0.8286,0.8295,0.8325,0.8334,0.8352,0.8372,0.838,0.8401,0.842,0.8433,0.8441,0.8455,0.8457,0.8463,0.8455,0.8451,0.8448,0.8447,0.8448,0.8445,0.8483,0.8483,0.8483,0,0,0.8222,0.8245,0.8251,0.8279,0.8296,0.8307,0.8332,0.8342,0.835,0.8382,0.8392,0.8407,0.843,0.8435,0.8439,0.8448,0.8438,0.8447,0.8444,0.8445,0.8446,0.8443,0.8439,0.8482,0.8482,0.8482,0,0,0.8199,0.8219,0.8224,0.824,0.8265,0.8285,0.8286,0.8316,0.8328,0.8339,0.8363,0.8372,0.8394,0.8409,0.8419,0.8402,0.8418,0.8405,0.8386,0.8386,0.8383,0.8381,0.8373,0.837,0.8404,0.8404,0.8404,0,0.8177,0.8195,0.8223,0.8232,0.8243,0.8274,0.8277,0.8292,0.832,0.8327,0.8336,0.8364,0.8382,0.839,0.8386,0.8394,0.8395,0.8402,0.8382,0.838,0.8377,0.8371,0.8368,0.8402,0.8402,0.8403,0.8403,0,0.8166,0.8178,0.8178,0.8205,0.8217,0.8223,0.8251,0.8259,0.8275,0.8294,0.8303,0.8325,0.8343,0.8347,0.8363,0.8357,0.8362,0.8376,0.8393,0.8371,0.8365,0.8363,0.84,0.84,0.8401,0.8401,0,0,0.8121,0.8163,0.8163,0.8175,0.8205,0.8214,0.8221,0.824,0.8246,0.8264,0.827,0.8288,0.8301,0.8312,0.8331,0.8331,0.8314,0.8345,0.8346,0.8338,0.8308,0.8296,0.8293,0.8326,0.8325,0.8325,0.8305,0,0.8102,0.8118,0.8143,0.815,0.816,0.8188,0.8194,0.8213,0.823,0.824,0.8259,0.827,0.8288,0.8295,0.8297,0.8316,0.8308,0.8318,0.833,0.833,0.8323,0.829,0.8278,0.8258,0.8303,0.8303,0.8303,0,0.8083,0.81,0.8108,0.8136,0.8142,0.8147,0.8165,0.8175,0.8196,0.8208,0.8221,0.8241,0.8248,0.8264,0.8274,0.828,0.8287,0.8297,0.8296,0.8298,0.8315,0.8289,0.8252,0.8249,0.83,0.83,0.83,0,0.8048,0.8073,0.8081,0.809,0.8124,0.8127,0.814,0.8162,0.8171,0.8187,0.8193,0.8209,0.8218,0.8229,0.8253,0.8262,0.826,0.8278,0.8269,0.8268,0.8266,0.8266,0.8229,0.8272,0.8272,0.8272,0.8272,0,0.8024,0.8028,0.8065,0.807,0.8074,0.8102,0.8105,0.8122,0.814,0.8148,0.8173,0.8179,0.821,0.8219,0.8237,0.8242,0.8246,0.8255,0.826,0.8252,0.8251,0.8256,0.8258,0.8272,0.8272,0.8272,0.8272,0,0.7986,0.8011,0.8021,0.8052,0.806,0.8062,0.8087,0.8092,0.8111,0.8119,0.8123,0.8151,0.8164,0.8188,0.8207,0.8219,0.8219,0.8228,0.8212,0.8215,0.8204,0.8204,0.8169,0.8165,0.8211,0.8211,0.821,0,0.7969,0.7972,0.8003,0.801,0.8023,0.8034,0.8044,0.8071,0.808,0.8104,0.8105,0.8119,0.8132,0.815,0.8172,0.8186,0.8195,0.8181,0.8197,0.8189,0.8193,0.8192,0.8192,0.8177,0.8176,0.8176,0.8176,0,0.7935,0.7947,0.796,0.7978,0.7989,0.8003,0.8019,0.8023,0.8055,0.8063,0.8076,0.8086,0.8105,0.8118,0.8136,0.8149,0.8167,0.8171,0.8169,0.8161,0.8151,0.8155,0.8201,0.8171,0.8172,0.8172,0.8172,0.8172,0.7906,0.7909,0.7932,0.7945,0.796,0.7975,0.798,0.7999,0.8011,0.8029,0.8045,0.8056,0.8075,0.8101,0.8113,0.8121,0.813,0.8128,0.8127,0.8126,0.8123,0.8151,0.8124,0.8125,0.8125,0.8125,0.8125,0,0.7872,0.7888,0.79,0.7922,0.7932,0.7949,0.7968,0.7975,0.7984,0.8002,0.8014,0.8028,0.8041,0.8063,0.8078,0.808,0.8089,0.8083,0.8082,0.8085,0.8114,0.8114,0.8076,0.8076,0.8076,0.8076,0.8076,0.8076,0.7856,0.7863,0.7877,0.7891,0.7907,0.7919,0.7927,0.794,0.7954,0.7969,0.798,0.7995,0.8014,0.803,0.8042,0.8048,0.8052,0.8043,0.8052,0.8078,0.8083,0.8087,0.8087,0.8044,0.8044,0.8021,0.8021,0.8021]},{"header":{"parameterUnit":"m.s-1","parameterCategory":1,"la1":30.2991,"la2":30.254,"lo1":-89.0895,"lo2":-89.0444,"dy":0.0017,"dx":0.0017,"nx":28,"ny":28,"refTime":"2025-05-25T21:00:00:Z","depth":0,"parameterNumber":3,"parameterNumberName":"V-component_of_WINDS"},"data":[0,0,0,0,0,0,0,0,0,0,0,0,0,0,0,0,0,0,0,0,0,0,0,0,0,0,0,0,0,0,0,0,0,0,0,0,0,0,0,0,0,0,0,0,0,0,0,0,0,0,0,0,0,0,0,0,0,0,1.6185,1.6186,0,1.6256,1.6257,1.6258,1.6271,1.627,1.627,1.6269,1.6338,1.634,1.6343,0,0,0,0,0,0,0,0,0,0,0,0,0,1.6056,1.6059,1.6185,1.6186,1.6187,1.6256,1.6257,1.6258,1.6271,1.627,1.6269,1.6269,1.6337,1.634,1.6343,0,0,0,0,0,0,0,0,0,0,0,0,0,1.6118,1.6059,1.6185,1.6202,1.6204,1.6256,1.6257,1.6258,1.6271,1.627,1.6269,1.6268,1.6336,1.634,1.6343,1.6382,0,0,1.6354,1.6356,0,0,0,0,0,0,0,0,1.6115,1.6123,1.6198,1.62,1.6203,1.6254,1.6237,1.6299,1.6271,1.6245,1.6269,1.6268,1.631,1.6316,1.6331,1.6385,1.6388,1.6354,1.6356,1.6358,1.6359,0,0,0,0,0,0,0,1.611,1.612,1.6213,1.6199,1.6202,1.6204,1.6212,1.6249,1.6282,1.6247,1.6249,1.6257,1.6311,1.6328,1.6333,1.6389,1.6354,1.6357,1.636,1.6361,1.6478,1.6479,0,0,0,0,0,0,1.6104,1.6116,1.6211,1.6215,1.6156,1.6207,1.6216,1.6238,1.6281,1.6287,1.6258,1.6257,1.6322,1.6329,1.6335,1.6384,1.6358,1.6361,1.6363,1.6477,1.6479,1.648,0,0,0,0,0,0,1.6101,1.6112,1.6208,1.6166,1.6178,1.621,1.6235,1.624,1.6256,1.6289,1.6295,1.6268,1.6322,1.633,1.6371,1.6386,1.6363,1.6366,1.6476,1.6478,1.6479,1.6481,0,0,0,0,0,0,1.6097,1.6111,1.6127,1.6166,1.6181,1.6243,1.6236,1.6242,1.6263,1.6263,1.6301,1.6306,1.6322,1.6365,1.6374,1.6391,1.6369,1.6475,1.6477,1.6479,1.6479,1.6482,1.6484,0,0,0,0,0,1.6092,1.6124,1.6128,1.6139,1.6202,1.6244,1.6252,1.6271,1.6264,1.628,1.6301,1.6305,1.6383,1.6369,1.6379,1.6397,1.6474,1.6476,1.6479,1.6478,1.6482,1.6484,0,0,0,0,0,0,1.6084,1.6129,1.6134,1.6179,1.6208,1.6246,1.6267,1.6273,1.6303,1.6302,1.6323,1.6331,1.637,1.6387,1.6371,1.6437,1.6428,1.6432,1.6424,1.6428,1.643,1.6425,1.6372,0,0,0,0,0,1.6088,1.612,1.6157,1.6193,1.6207,1.6235,1.6254,1.6266,1.6295,1.6307,1.6331,1.6359,1.639,1.6409,1.644,1.6482,1.649,1.6499,1.6501,1.6503,1.6507,1.653,1.6535,1.6487,1.6487,1.6487,0,0,1.6095,1.6124,1.6143,1.6192,1.6216,1.6247,1.6245,1.6278,1.6301,1.6312,1.6352,1.637,1.6402,1.6444,1.6463,1.6459,1.6522,1.6506,1.6507,1.651,1.6533,1.6537,1.6541,1.6489,1.6488,1.6488,0,0,1.6125,1.615,1.6183,1.6207,1.6243,1.6261,1.6269,1.6306,1.6319,1.636,1.6369,1.6395,1.6448,1.6471,1.6489,1.6527,1.6532,1.6536,1.6549,1.6572,1.6576,1.6579,1.6593,1.6597,1.654,1.654,1.654,0,1.613,1.6179,1.6199,1.6233,1.6254,1.6266,1.6299,1.632,1.6364,1.6378,1.6373,1.644,1.6462,1.6509,1.6518,1.6533,1.6542,1.6532,1.6574,1.6577,1.6581,1.6594,1.6599,1.654,1.654,1.654,1.654,0,1.6183,1.6217,1.6239,1.6282,1.6306,1.6339,1.6362,1.6384,1.6393,1.6411,1.6451,1.6479,1.6515,1.6526,1.6535,1.6574,1.6571,1.657,1.6561,1.6585,1.6598,1.6603,1.6541,1.654,1.654,1.654,0,0,1.621,1.6264,1.6272,1.6292,1.6332,1.6358,1.6391,1.6427,1.6445,1.6474,1.6502,1.6546,1.6545,1.6566,1.6577,1.6597,1.6625,1.6593,1.6594,1.6598,1.667,1.6671,1.6676,1.6628,1.6629,1.663,1.6667,0,1.6245,1.6307,1.6325,1.6376,1.6407,1.6418,1.6447,1.6474,1.6491,1.6519,1.6537,1.6569,1.6565,1.6578,1.6598,1.6618,1.664,1.6615,1.6653,1.6654,1.6646,1.6683,1.6684,1.6718,1.6672,1.6673,1.6673,0,1.6295,1.6327,1.638,1.6417,1.6431,1.6456,1.6491,1.6518,1.6548,1.6559,1.6582,1.6592,1.6625,1.6615,1.6661,1.6643,1.666,1.6672,1.6674,1.6678,1.6666,1.6689,1.6729,1.6734,1.6681,1.6681,1.668,0,1.631,1.6365,1.6405,1.6421,1.6465,1.6482,1.6501,1.6531,1.6551,1.6581,1.6594,1.6627,1.6645,1.6669,1.6687,1.6677,1.6731,1.6722,1.674,1.674,1.6752,1.6751,1.6795,1.6762,1.6761,1.6761,1.6761,0,1.6348,1.638,1.6413,1.6437,1.6473,1.6494,1.6529,1.6547,1.6574,1.6601,1.6612,1.6637,1.6659,1.6686,1.67,1.6736,1.6744,1.6753,1.6756,1.6752,1.6751,1.6764,1.6762,1.6763,1.6762,1.6762,1.6762,0,1.6371,1.6394,1.6438,1.6475,1.6485,1.6511,1.6542,1.6565,1.6583,1.6617,1.6626,1.6653,1.6686,1.6707,1.6748,1.6757,1.6797,1.6799,1.6787,1.6788,1.6806,1.6804,1.6861,1.6869,1.6829,1.683,1.683,0,1.6394,1.6419,1.646,1.6479,1.6499,1.653,1.6551,1.6572,1.6593,1.663,1.6648,1.6682,1.6711,1.6762,1.6785,1.6816,1.6819,1.6837,1.6824,1.6819,1.682,1.6818,1.6821,1.6839,1.684,1.684,1.684,0,1.6432,1.6442,1.6473,1.6508,1.6533,1.6561,1.6589,1.6604,1.6629,1.6653,1.6687,1.6709,1.6752,1.6785,1.6819,1.6836,1.6842,1.6844,1.685,1.6846,1.6839,1.6843,1.6793,1.6843,1.6842,1.6842,1.6842,1.6842,1.6455,1.6479,1.6511,1.6545,1.6568,1.6594,1.6618,1.6639,1.6669,1.6706,1.6716,1.6752,1.6781,1.6826,1.6845,1.6872,1.6869,1.6878,1.688,1.6882,1.6883,1.6834,1.6878,1.6878,1.6878,1.6878,1.6878,0,1.6494,1.6516,1.6547,1.6586,1.6613,1.6617,1.6648,1.667,1.6702,1.6729,1.6757,1.6796,1.6828,1.6853,1.6886,1.6903,1.6906,1.6911,1.691,1.6914,1.6883,1.6875,1.6908,1.6908,1.6907,1.6907,1.6907,1.6907,1.6518,1.6557,1.6571,1.6622,1.6643,1.6679,1.6697,1.672,1.6742,1.6786,1.6813,1.683,1.6855,1.689,1.6919,1.6926,1.6937,1.6941,1.6948,1.6919,1.6916,1.6913,1.6905,1.6943,1.6944,1.6976,1.6977,1.6977]}]]